www.pogodaiklimat.ru

Погода и климат >> Архив погоды >> Южная Африка >> Malmesbury


ПОГОДА в Malmesbury

  • Прогноз погоды в Malmesbury
  • Монитор погоды в Malmesbury
  • Климат города

АРХИВ ПОГОДЫ в Malmesbury

Время (UTC), дата Ветер
(напр.,м/с)
 
Видим.   Явления Облачность Т
(С)
Тd
(С)
f
(%)
Тe
(С)
Тes
(С)
Комфортность P
(гПа)
Po
(гПа)
Тmin
(С)
Tmax
(С)
R
(мм)
R24
(мм)
S
(см)
15 14.10 СЗ 3 н/о н/о +20.9 +9.6 48 +23 +23 комфорт 855.4 1002.4 +20.8 +24.8
18 14.10 З 2 н/о н/о +16.1 +10.0 67 +16 +16 855.0 1004.7 +16.1 +24.8
21 14.10 С 2 н/о н/о +14.8 +11.0 78 +14 +14 855.2 1005.6 +14.7 +24.8
00 15.10 С 2 н/о н/о +13.4 +10.6 83 +13 +13 854.7 1005.9 +13.4 +24.8
03 15.10 СЗ 1 н/о н/о +14.0 +11.5 85 +14 +14 855.9 1006.9 +13.4 +24.8
06 15.10 штиль 0 н/о н/о +14.5 +11.8 84 +14 +14 857.8 1008.8 +13.4
09 15.10 Ю 1 н/о н/о +21.1 +9.5 47 +22 +22 комфорт 861.0 1008.5 +13.4 +22.8
12 15.10 ЮЗ 3 н/о н/о +19.9 +9.3 50 +21 +21 комфорт 860.4 1008.6 +13.4 +22.8
15 15.10 ЮЗ 3 н/о н/о +18.8 +10.9 60 +20 +20 859.6 1008.3 +18.8 +22.8
18 15.10 Ю 2 н/о н/о +14.2 +10.4 78 +14 +14 858.0 1009.2 +14.1 +22.8
21 15.10 ЮЗ 1 н/о н/о +12.2 +8.8 80 +12 +12 857.9 1010.3 +11.9 +22.8
00 16.10 штиль 0 н/о н/о +8.2 +6.5 89 +7 +7 855.0 1009.3 +8.1 +22.8
03 16.10 штиль 0 н/о н/о +7.3 +5.7 90 +6 +6 854.5 1009.2 +6.5 +22.8
06 16.10 ЮЗ 1 н/о н/о +12.9 +9.3 79 +13 +13 857.5 1009.4 +6.5
12 16.10 З 2 н/о н/о +24.1 -0.0 20 +23 +23 комфорт 861.3 1007.1 +6.5 +25.2
18 16.10 Ю 1 н/о н/о +14.5 +8.9 69 +15 +15 857.8 1008.8 +14.5 +25.2
03 17.10 штиль 0 н/о н/о +7.1 +5.4 89 +6 +6 853.2 1007.8 +7.0 +25.2
06 17.10 штиль 0 н/о н/о +13.8 +9.4 75 +13 +13 857.4 1008.7 +6.6
09 17.10 ЮВ 1 н/о н/о +23.0 +6.0 33 +23 +23 комфорт 861.0 1007.4 +6.6 +23.7
12 17.10 ЮВ 2 н/о н/о +27.0 +7.2 28 +27 +27 жарко 861.0 1005.2 +6.6 +27.1
15 17.10 ЮЗ 3 н/о н/о +24.8 +8.1 34 +25 +25 комфорт 858.4 1003.6 +24.7 +28.1
18 17.10 ЮЗ 2 н/о н/о +17.4 +10.1 62 +18 +18 854.7 1003.6 +17.2 +28.1
21 17.10 штиль 0 н/о н/о +12.0 +8.6 80 +11 +11 852.4 1004.1 +11.9 +28.1
00 18.10 СВ 2 н/о н/о +13.5 +9.5 77 +13 +13 852.4 1003.2 +11.9 +28.1
03 18.10 штиль 0 н/о н/о +10.5 +8.1 85 +10 +10 850.0 1002.1 +10.5 +28.1
06 18.10 СВ 2 н/о н/о +16.0 +10.1 68 +16 +16 853.7 1003.2 +10.4
09 18.10 ЮЗ 2 н/о н/о +23.7 +7.5 35 +24 +24 комфорт 857.5 1003.2 +10.4 +23.8
12 18.10 ЮЗ 3 н/о н/о +25.4 +6.8 30 +25 +25 комфорт 856.6 1001.3 +10.4 +26.3
15 18.10 ЮЗ 3 н/о н/о +21.4 +8.8 44 +23 +23 комфорт 855.2 1001.9 +21.0 +26.3
18 18.10 Ю 1 н/о н/о +15.7 +12.3 80 +16 +16 854.2 1004.0 +15.7 +26.3
21 18.10 Ю 1 н/о н/о +15.0 +12.5 85 +15 +15 855.0 1005.3 +14.9 +26.3
00 19.10 ЮЗ 2 н/о н/о +13.3 +11.8 91 +12 +12 854.4 1005.6 +13.3 +26.3 0.2
03 19.10 ЮЗ 2 н/о н/о +12.5 +9.7 83 +12 +12 855.0 1006.7 +12.5 +26.3
06 19.10 ЮЗ 2 н/о н/о +14.6 +9.2 70 +15 +15 857.7 1008.6 +12.5 0.4
09 19.10 Ю 3 н/о н/о +20.1 +8.2 46 +21 +21 комфорт 861.3 1009.4 +12.5 +20.4
12 19.10 Ю 3 н/о н/о +21.6 +7.6 40 +23 +23 комфорт 861.9 1009.2 +12.5 +22.1
15 19.10 Ю 3 н/о н/о +21.1 +6.4 38 +22 +22 комфорт 862.0 1009.6 +20.8 +22.4
18 19.10 Ю 3 н/о н/о +17.2 +4.9 44 +17 +17 861.1 1010.9 +17.2 +22.4
21 19.10 ЮВ 1 н/о н/о +14.6 +4.9 52 +15 +15 861.1 1012.4 +13.1 +22.4
00 20.10 ЮЗ 1 н/о н/о +10.1 +4.9 70 +10 +10 858.3 1012.0 +9.8 +22.4
03 20.10 штиль 0 н/о н/о +6.8 +3.7 81 +6 +6 856.6 1012.0 +6.8 +22.4
06 20.10 ЮВ 2 н/о н/о +18.5 +3.6 37 +19 +19 863.6 1012.9 +5.9
09 20.10 В 3 н/о н/о +25.5 +1.8 21 +24 +24 комфорт 866.7 1012.3 +5.9 +25.6
12 20.10 В 6 н/о н/о +27.8 +3.7 21 +26 +26 жарко 866.3 1010.5 +5.9 +28.1
15 20.10 В 5 н/о н/о +27.5 +4.1 22 +26 +26 жарко 864.9 1009.2 +27.2 +28.8
18 20.10 В 5 н/о н/о +20.8 +2.7 30 +21 +21 комфорт 862.3 1010.1 +20.8 +28.8
21 20.10 В 3 н/о н/о +19.2 +2.6 33 +20 +20 862.1 1010.8 +18.9 +28.8
00 21.10 В 3 н/о н/о +18.2 +0.4 30 +18 +18 860.9 1010.1 +18.0 +28.8
03 21.10 З 1 н/о н/о +16.7 -0.8 30 +18 +18 859.6 1009.5 +16.7 +28.8
06 21.10 В 3 н/о н/о +19.9 -2.2 22 +20 +20 861.5 1009.7 +16.1
09 21.10 В 5 н/о н/о +28.2 -4.7 11 +25 +25 комфорт 864.7 1008.5 +16.1 +28.3
12 21.10 В 4 н/о н/о +30.9 -2.6 11 +27 +27 жарко 864.0 1006.3 +16.1 +32.0

 

Местоположение метеостанции Malmesbury (Южная Африка): широта -33.46 долгота 18.72 высота над уровнем моря 102 м.

В архиве по умолчанию представлена погода в Malmesbury за последнюю неделю. Архивные данные за месяц целиком и за предыдущие месяцы, начиная с января 2011 года, Вы можете получить, выбрав интересующий диапазон дат из раскрывающегося списка и нажав кнопку "Ввод!".


*Определитесь, кто Вы:
робот инопланетянин человек

Внимание! Время в таблицах - всемирное. Для получения местного времени необходимо прибавить поправку, которая в Malmesbury равна 2 ч.

Смотрите также архив погоды в соседних городах и на ближайших метеорологических станциях:

Погода в Paarl (Южная Африка) (37 км)
Погода в Robben Island (Южная Африка) (50 км)
Погода в Ysterplant (Южная Африка) (53 км)
Погода в Table Bay (Южная Африка) (56 км)
Погода в Cape Town Airport (Южная Африка) (57 км)
Погода в Cape Town Int Airport (Южная Африка) (57 км)
Погода в Cape Town (Южная Африка) (61 км)
Погода в Geelbek (Южная Африка) (63 км)
Погода в Worcester (Южная Африка) (72 км)
Погода в Langebaanweg (Южная Африка) (76 км)

Пояснения к столбцам:

Ветер - указаны скорость ветра в м/с - средняя за 10 мин, порывы в срок и между сроками (в фигурных скобках) и направление, откуда дует ветер: С - северный, СВ - северо-восточный, В - восточный, ЮВ - юго-восточный, Ю - южный, ЮЗ - юго-западный, З - западный, СЗ - северо-западный.
Видимость - горизонтальная дальность видимости в метрах или километрах. При видимости от 1 до 10 км при отсутствии осадков обычно наблюдается дымка, при ухудшении видимости до 1 км и менее - туман. В сухую погоду видимость может ухудшаться дымом, пылью или мглою.
Явления - указаны атмосферные явления, наблюдавшиеся в срок или в последний час перед сроком; фигурными скобками обозначены явления, наблюдавшиеся между сроками (за 1-3 часа до срока); квадратными скобками обозначены град или гололедные отложения с указанием их диаметра в мм.
Облачность - указаны через наклонную черту общая и нижняя облачность в баллах и высота нижней границы облаков в метрах; квадратными скобками обозначены формы облаков: Ci - перистые, Cs - перисто-слоистые, Cc - перисто-кучевые, Ac - высококучевые, As - высокослоистые, Sc - слоисто-кучевые, Ns - слоисто-дождевые, Cu - кучевые, Cb - кучево-дождевые. Подробнее классификацию облаков см. в Атласе облаков (PDF).
T - Температура воздуха - температура, измеренная на высоте 2 м над землей.
Td - Температура точки росы - температура, при понижении до которой содержащийся в воздухе водяной пар достигнет насыщения.
f - Относительная влажность воздуха - влажноcть воздуха, измеренная на высоте 2 м над землей.
Te - Эффективная температура - температура, которую ощущает одетый по сезону человек в тени. Характеристика душности погоды. При расчете учитывается влияние влажности воздуха и скорости ветра на теплоощущения человека.
Tes - Эффективная температура на солнце - температура, которую ощущает человек, с поправкой на солнечный нагрев. Характеристика знойности погоды. Зависит от высоты солнца над горизонтом, облачности и скорости ветра. Ночью, в пасмурную погоду, а также при ветре 12 м/с и более поправка равна нулю.
P - Атмосферное давление - приведенное к уровню моря атмосферное давление.
Po - Атмосферное давление - измеренное на уровне метеостанции атмосферное давление.
Tmin - Минимальная температура - минимум температуры воздуха на высоте 2 м над землей.
Tmax - Максимальная температура - максимум температуры воздуха на высоте 2 м над землей.
R - Количество осадков - Количество выпавших осадков за период времени, мм. При наведении курсора мыши на число - период времени, за который выпало указанное количество осадков.
R24 - Количество осадков - Количество выпавших осадков за 24 часа, мм.
S - Снежный покров - Высота снежного покрова, см. При наведении курсора мыши на число - состояние снежного покрова и степень покрытия местности в баллах.